Flag for Canada Weather past 2 weeks in Riverview, New Brunswick, Canada

Now
43 °F

Passing clouds.


Feels Like: 36 °F
Forecast: 38 / 59 °F
Wind: 12 mph from Southeast

Location: Moncton

Current Time: May 6, 2015 at 11:38:21 PM

Latest Report: May 6, 2015 at 11:00 PM


Visibility: 15 mi

Pressure: 30.03 "Hg

Humidity: 53%

Dew point: 27 °F

Location of RiverviewLocation

Historic Weather in Riverview — Graph

°F

Riverview temperature yesterday

Maximum temperature yesterday: 66 °F (at 3:00 PM)
Minimum temperature yesterday: 50 °F (at 11:00 PM)
Average temperature yesterday: 58 °F

Past Weeks' High & Low Weather Summary

 TemperatureHumidityPressure
High77 °F (May 4, 4:00 PM)100% (Apr 22, 4:00 AM)30.13 "Hg (Apr 22, 4:00 AM)
Low25 °F (Apr 26, 5:00 AM)19% (May 5, 5:00 PM)29.32 "Hg (Apr 28, 5:00 PM)
Average40 °F82%29.77 "Hg
* Reported Apr 21 10:00 PM — May 6 10:00 PM, Riverview, Weather by CustomWeather, © 2015

Note: Actual official high and low records may vary slightly from our data, if they occured in-between our weather recording intervals... More about our weather records

Advertising

Riverview weather history for previous 24 hours

 ConditionsComfort  
Time TempWeatherWind HumidityBarometerVisibility
10:00 PM
Wed, May 6
45 °FPartly cloudy.14 mph42%30.03 "Hg15 mi
9:00 PM48 °FPartly sunny.14 mph37%29.99 "Hg15 mi
8:00 PM61 °FPartly sunny.10 mph27%29.97 "Hg15 mi
7:00 PM61 °FPartly sunny.16 mph25%29.97 "Hg15 mi
6:00 PM61 °FScattered clouds.17 mph23%29.98 "Hg15 mi
5:00 PM61 °FScattered clouds.21 mph23%29.99 "Hg15 mi
4:00 PM61 °FScattered clouds.16 mph23%30.01 "Hg15 mi
3:00 PM61 °FPassing clouds.16 mph25%30.03 "Hg15 mi
2:00 PM59 °FPassing clouds.24 mph25%30.04 "Hg15 mi
1:00 PM57 °FPassing clouds.24 mph25%30.06 "Hg15 mi
12:00 PM55 °FPassing clouds.22 mph31%30.08 "Hg15 mi
11:00 AM54 °FScattered clouds.25 mph33%30.09 "Hg15 mi
10:00 AM54 °FPassing clouds.16 mph35%30.10 "Hg15 mi
9:00 AM50 °FPassing clouds.14 mph50%30.12 "Hg15 mi
8:00 AM45 °FPassing clouds.8 mph61%30.13 "Hg15 mi
7:00 AM41 °FScattered clouds.8 mph70%30.13 "Hg15 mi
6:00 AM41 °FPassing clouds.7 mph66%30.13 "Hg15 mi
5:00 AM43 °FPassing clouds.9 mph66%30.12 "Hg15 mi
4:00 AM46 °FPassing clouds.13 mph57%30.12 "Hg15 mi
3:00 AM46 °FPassing clouds.12 mph57%30.11 "Hg15 mi
2:00 AM48 °FOvercast.12 mph50%30.10 "Hg15 mi
1:00 AM50 °FMostly cloudy.12 mph47%30.08 "Hg15 mi
12:00 AM50 °FPassing clouds.9 mph40%30.08 "Hg15 mi
11:00 PM
Tue, May 5
50 °FPassing clouds.7 mph35%30.06 "Hg15 mi
Weather by CustomWeather, © 2015

See weather overviewHow to use our weather pages